Вернуться в каталог

STARLINK-37308

АктивенСвязьVLEO
NORAD 68952·PAYLOAD·🇺🇸 United States

Запущен May 1, 2026 с Cape Canaveral Space Force Station

Loading…

Ближайшие Пролёты (ближайшие 24 часа)

TLE

СвежийSource: CelesTrak SupGP

Эпоха: Sep 14, 2026, 22:49 UTC

1 68952C 26099B   26257.95118056 -.00007596  00000+0 -22449-3 0  2572
2 68952  53.1575 101.9907 0001275  84.8838 112.1244 15.34385853    10

Отслеживайте STARLINK-37308 в реальном времени с AllMySat

Download on the App Store